Location: Boiro
(42.6475°N, 8.8834°W)
Time: 00:56:29
(UTC+01:00)

Explorer 7 - Pass Details

Date: 06 December 2021
Orbit: 483 x 674 km, 50.3° (Epoch: 23 January)

Event Time Altitude Azimuth Distance (km) Brightness Sun altitude
Rises 09:40:25 0° 292° (WNW) 2,747 9.8 6.6°
Reaches altitude 10° 09:42:59 10° 304° (NW) 1,815 8.9 7.0°
Maximum altitude 09:46:32 27° 4° (N) 1,026 8.0 7.5°
Drops below altitude 10° 09:49:56 10° 64° (ENE) 1,727 9.7 7.9°
Sets 09:52:18 0° 77° (ENE) 2,587 10.8 8.3°
